Location: downtown San Diego
(32.7310°N, 117.1990°W)
Time: 03:31:26
(UTC-07:00)

Resurs 01 Rocket - Pass Details

Date: 14 June 2018
Orbit: 635 x 643 km, 98.1° (Epoch: 22 October)

Event Time Altitude Azimuth Distance (km) Brightness Sun altitude
Exits shadow 21:19:22 - 187° (S) 2,212 4.1 -14.9°
Reaches altitude 10° 21:19:53 10° 189° (S) 2,013 3.9 -15.0°
Maximum altitude 21:24:02 43° 260° (W) 896 2.7 -15.6°
Drops below altitude 10° 21:28:15 10° 333° (NNW) 2,028 5.3 -16.3°
Sets 21:30:33 0° 340° (NNW) 2,942 6.2 -16.6°
